TimeMDT,TemperatureF,Dew PointF,Humidity,Sea Level PressureIn,VisibilityMPH,Wind Direction,Wind SpeedMPH,Gust SpeedMPH,PrecipitationIn,Events,Conditions,WindDirDegrees,DateUTC
12:53 AM,26.1,21.0,81,30.14,10.0,East,4.6,-,N/A,,Clear,90,2014-03-13 06:53:00
1:53 AM,25.0,21.0,85,30.12,10.0,NE,5.8,-,N/A,,Clear,40,2014-03-13 07:53:00
2:53 AM,26.1,21.0,81,30.10,10.0,NE,4.6,-,N/A,,Clear,50,2014-03-13 08:53:00
3:53 AM,25.0,19.9,81,30.06,10.0,NE,4.6,-,N/A,,Clear,40,2014-03-13 09:53:00
4:53 AM,25.0,19.9,81,30.06,10.0,NE,3.5,-,N/A,,Clear,50,2014-03-13 10:53:00
5:53 AM,24.1,19.0,81,30.05,10.0,NNE,3.5,-,N/A,,Clear,30,2014-03-13 11:53:00
6:53 AM,21.9,18.0,85,30.06,10.0,Calm,Calm,-,N/A,,Clear,0,2014-03-13 12:53:00
7:53 AM,28.0,21.9,78,30.05,10.0,Calm,Calm,-,N/A,,Clear,0,2014-03-13 13:53:00
8:53 AM,37.0,25.0,62,30.02,10.0,NNW,3.5,-,N/A,,Clear,340,2014-03-13 14:53:00
9:53 AM,43.0,23.0,45,29.99,10.0,NW,3.5,-,N/A,,Clear,310,2014-03-13 15:53:00
10:53 AM,48.9,19.0,31,29.94,10.0,Variable,3.5,-,N/A,,Clear,0,2014-03-13 16:53:00
11:53 AM,55.9,17.1,22,29.89,10.0,WSW,10.4,-,N/A,,Clear,250,2014-03-13 17:53:00
12:53 PM,60.1,16.0,18,29.84,10.0,West,21.9,29.9,N/A,,Clear,260,2014-03-13 18:53:00
1:53 PM,63.0,14.0,15,29.78,10.0,West,24.2,35.7,N/A,,Clear,270,2014-03-13 19:53:00
2:53 PM,63.0,14.0,15,29.74,10.0,West,24.2,35.7,N/A,,Clear,270,2014-03-13 20:53:00
3:53 PM,63.0,16.0,16,29.73,10.0,WNW,23.0,34.5,N/A,,Clear,290,2014-03-13 21:53:00
4:53 PM,62.1,18.0,18,29.72,10.0,West,23.0,34.5,N/A,,Clear,260,2014-03-13 22:53:00
5:53 PM,60.1,23.0,24,29.74,10.0,NNW,24.2,29.9,N/A,,Clear,330,2014-03-13 23:53:00
6:00 PM,59.0,23.0,25,29.74,10.0,NW,21.9,29.9,N/A,,Clear,320,2014-03-14 00:00:00
6:53 PM,51.1,24.1,35,29.79,10.0,NNW,11.5,-,N/A,,Clear,330,2014-03-14 00:53:00
7:53 PM,46.9,25.0,42,29.80,10.0,NW,8.1,-,N/A,,Clear,310,2014-03-14 01:53:00
8:53 PM,44.1,25.0,47,29.81,10.0,NW,8.1,-,N/A,,Clear,320,2014-03-14 02:53:00
9:53 PM,46.0,25.0,44,29.84,10.0,North,20.7,28.8,N/A,,Clear,10,2014-03-14 03:53:00
10:53 PM,41.0,26.1,55,29.89,10.0,North,9.2,-,N/A,,Clear,10,2014-03-14 04:53:00
11:53 PM,36.0,25.0,64,29.92,10.0,West,10.4,-,N/A,,Clear,260,2014-03-14 05:53:00